Home   Weather   Elizabeth   Past weeks

Flag for USA Past Weather in Elizabeth, New Jersey, USA — Yesterday and Last 2 Weeks

Now
39 °F

Partly sunny.


Feels Like: 32 °F
Forecast: 33 / 44 °F
Wind: 10 mph from Southwest

Location: Newark International Airport

Current Time: Dec 8, 2016 at 9:21:12 am

Latest Report: Dec 8, 2016 at 8:51 am


Visibility: 10 mi

Pressure: 29.98 "Hg

Humidity: 67%

Dew Point: 29 °F

Location of ElizabethLocation

Past Weather in Elizabeth — Graph

°F

Elizabeth Temperature Yesterday

Maximum temperature yesterday: 47 °F (at 2:51 pm)
Minimum temperature yesterday: 38 °F (at 10:51 pm)
Average temperature yesterday: 42 °F

High & Low Weather Summary for the Past Weeks

 TemperatureHumidityPressure
High60 °F (Nov 29, 3:51 pm)100% (Nov 29, 6:51 pm)30.31 "Hg (Nov 29, 6:51 pm)
Low35 °F (Nov 23, 7:51 am)34% (Nov 23, 1:51 pm)29.46 "Hg (Dec 1, 2:51 am)
Average46 °F69%30.04 "Hg
* Reported Nov 23 7:51 am — Dec 8 7:51 am, Elizabeth, Weather by CustomWeather, © 2016

Note: Actual official high and low records may vary slightly from our data, if they occured in-between our weather recording intervals... More about our weather records

Advertising

Elizabeth Weather History for the Previous 24 Hours

Scroll right to see more
 ConditionsComfort  
Time TempWeatherWind HumidityBarometerVisibility
7:51 am
Thu, Dec 8
38 °FPartly sunny.8 mph70%29.98 "Hg10 mi
6:51 am37 °FPassing clouds.6 mph79%29.98 "Hg10 mi
5:51 am35 °FPartly cloudy.6 mph85%29.98 "Hg10 mi
4:51 am36 °FPassing clouds.No wind82%29.98 "Hg10 mi
3:51 am35 °FPassing clouds.3 mph85%29.99 "Hg10 mi
2:51 am38 °FPassing clouds.6 mph83%30.00 "Hg10 mi
1:51 am38 °FPassing clouds.5 mph83%30.00 "Hg10 mi
12:51 am39 °FPassing clouds.8 mph82%30.01 "Hg10 mi
11:51 pm
Wed, Dec 7
38 °FPassing clouds.6 mph83%30.02 "Hg10 mi
10:51 pm38 °FPartly cloudy.6 mph83%30.03 "Hg10 mi
9:51 pm43 °FPassing clouds.6 mph74%30.03 "Hg10 mi
8:51 pm45 °FPassing clouds.3 mph71%30.03 "Hg10 mi
7:51 pm46 °FPassing clouds.No wind68%30.03 "Hg10 mi
6:51 pm46 °FOvercast.3 mph68%30.04 "Hg10 mi
5:51 pm46 °FPassing clouds.6 mph68%30.03 "Hg10 mi
4:51 pm47 °FOvercast.7 mph69%30.02 "Hg10 mi
3:51 pm46 °FBroken clouds.5 mph71%29.98 "Hg10 mi
2:51 pm47 °FBroken clouds.3 mph77%29.98 "Hg10 mi
1:51 pm44 °FMostly cloudy.5 mph82%29.97 "Hg10 mi
12:51 pm43 °FMostly cloudy.3 mph86%29.97 "Hg10 mi
11:51 am43 °FMostly cloudy.5 mph86%29.97 "Hg8 mi
10:51 am42 °FLow clouds.3 mph92%29.99 "Hg8 mi
9:51 am40 °FDrizzle. Fog.6 mph93%30.01 "Hg2 mi
Weather by CustomWeather, © 2016

See weather overviewHow to use our weather pages